Regional Weather Roundup
Issued by NWS

Home | Current Version | Previous Version | Graphics & Text | Print | Product List | Glossary On
Versions: 1 2 3 4 5 6 7 8 9 10 11 12 13 14 15 16 17 18 19 20 21 22 23 24 25 26 27 28 29 30 31 32 33 34 35 36 37 38 39 40 41 42 43 44 45 46 47 48 49 50
000
ASUS45 KCYS 120310
RWRWY

WYOMING REGIONAL WEATHER ROUNDUP
NATIONAL WEATHER SERVICE CHEYENNE WY
800 PM MST THU FEB 11 2016

NOTE:  "FAIR" INDICATES FEW OR NO CLOUDS BELOW 12,000 FEET
WITH NO SIGNIFICANT WEATHER AND/OR OBSTRUCTIONS TO VISIBILITY.

WYZ001-120400-
YELLOWSTONE NATIONAL PARK

CITY           SKY/WX    TMP DP  RH WIND       PRES   REMARKS
LK YELLOWSTONE   N/A     33  21  61 VRB3      30.36S
W YELLOWSTONE  NOT AVBL

$$
WYZ002>013-054>058-071-098>099-120400-
NORTHERN WYOMING

CITY           SKY/WX    TMP DP  RH WIND       PRES   REMARKS
JACKSON        PTCLDY    34  27  75 CALM      30.35S
CODY           MOCLDY    45  18  33 CALM      30.23S
GREYBULL       FAIR      46  24  42 S7        30.19S
WORLAND        FAIR      40  27  59 SW5       30.21S
SHERIDAN       FAIR      36  24  62 NW7       30.21R WCI  30
BUFFALO        FAIR      41  23  48 CALM      30.23R
GILLETTE       FAIR      37  25  61 N6        30.20R WCI  32
HULETT         FAIR      36  30  80 N3        30.21S
NEWCASTLE      FAIR      36  23  60 W7        30.18R WCI  30

$$
WYZ014>020-022>026-101>103-120400-
CENTRAL WYOMING

CITY           SKY/WX    TMP DP  RH WIND       PRES   REMARKS
BIG PINEY      FAIR      34  24  67 CALM      30.36R
PINEDALE         N/A     30  23  74 W7        30.37S WCI  23
DUBOIS         CLOUDY    39  21  48 N8        30.30S WCI  34
LANDER         FAIR      39  25  57 E6        30.24S WCI  35
RIVERTON       FAIR      40  24  53 SW3       30.26S
CASPER         FAIR      37  27  67 SW9       30.24F WCI  30
DOUGLAS        FAIR      33  26  75 N3        30.25S

$$
WYZ021-027>030-104>119-120400-
SOUTHERN WYOMING

CITY           SKY/WX    TMP DP  RH WIND       PRES   REMARKS
EVANSTON       FAIR      35  20  54 SW9       30.39F WCI  28
KEMMERER       FAIR      36  18  48 NW7       30.39F WCI  30
FORT BRIDGER   CLEAR     39  19  45 W18       30.40S WCI  30
ROCK SPRINGS   FAIR      37  21  52 SW10      30.36F WCI  30
DIXON          FAIR      25  18  73 CALM      30.40S
RAWLINS        FAIR      37  22  54 W22G30    30.31R WCI  26
SARATOGA       FAIR      34  23  64 N5        30.33R WCI  30
LARAMIE        FAIR      35  23  61 VRB6      30.28R WCI  30
CHEYENNE       FAIR      40  24  53 N9        30.26R WCI  34
TORRINGTON     FAIR      37  27  67 W5        30.22R WCI  33
PINE BLUFFS    FAIR      36  27  69 N12       30.24F WCI  27

$$



USA.gov is the U.S. government's official web portal to all federal, state and local government web resources and services.